Regional Weather Roundup
Issued by NWS

Home | Current Version | Previous Version | Graphics & Text | Print | Product List | Glossary On
Versions: 1 2 3 4 5 6 7 8 9 10 11 12 13 14 15 16 17 18 19 20 21 22 23 24 25 26 27 28 29 30 31 32 33 34 35 36 37 38 39 40 41 42 43 44 45 46 47 48 49 50
000
ASUS45 KBOI 292310
RWRID

IDAHO REGIONAL WEATHER ROUNDUP
NATIONAL WEATHER SERVICE BOISE ID
500 PM MDT WED JUL 29 2015

NOTE: "FAIR" INDICATES FEW OR NO CLOUDS BELOW 12000 FEET
WITH NO SIGNIFICANT WEATHER AND/OR OBSTRUCTIONS TO VISIBILITY

IDZ012-014-300000-
SOUTHWEST IDAHO


CITY           SKY/WX    TMP DP  RH WIND       PRES   REMARKS
BOISE          SUNNY     88  31  13 VRB5      30.16F
CALDWELL       SUNNY     88  34  14 NW5       30.16F
MOUNTAIN HOME  SUNNY     87  22   9 VRB6      30.16F
$$

IDZ016-017-300000-
SOUTHCENTRAL IDAHO


CITY           SKY/WX    TMP DP  RH WIND       PRES   REMARKS
BURLEY         SUNNY     83  29  14 VRB5      30.22F
JEROME         SUNNY     83  24  11 SE6       30.23F
TWIN FALLS     SUNNY     87  30  13 N8        30.21F
$$

IDZ019>023-300000-
SOUTHEAST IDAHO


CITY           SKY/WX    TMP DP  RH WIND       PRES   REMARKS
IDAHO FALLS    SUNNY     79  31  17 VRB5      30.30F
POCATELLO      MOSUNNY   81  37  20 NW12      30.27F
REXBURG        SUNNY     76  32  20 W6        30.30
$$

IDZ006-010-011-018-031-032-300000-
CENTRAL IDAHO MOUNTAINS


CITY           SKY/WX    TMP DP  RH WIND       PRES   REMARKS
MCCALL         SUNNY     78  36  21 S6        30.27F
HAILEY         SUNNY     75  41  29 SE9       30.31F
STANLEY          N/A     77  29  17 MISG      30.35F
SALMON         SUNNY     79  43  27 N5        30.20F
CHALLIS        SUNNY     81  36  19 NE5       30.25F
$$

IDZ002-004-006-007-026-300000-
NORTHERN IDAHO


CITY           SKY/WX    TMP DP  RH WIND       PRES   REMARKS
LEWISTON       SUNNY     93  31  11 VRB5      30.10F
LOWELL           N/A     93  38  14 CALM      30.09F
COEUR D`ALENE  SUNNY     88  36  15 W13G22    30.13F
MULLAN PASS    SUNNY     70  35  27 VRB3      30.35F
$$



USA.gov is the U.S. government's official web portal to all federal, state and local government web resources and services.